This demonstration page uses our WeatherBlox Daily Observations layout. Learn more.

Left ArrowRight Arrow

Hourly Observations for July 2, 2015

Temp ( °F °C ) Dew Point ( °F °C ) Humidity (%) Winds ( mph kmh ) Pressure ( in mb ) Visibility ( mi km ) Precip ( " mm )
12:53 am 00:53 Mostly Cloudy 69 20.6 67 19.4 93 93 N N/A 29.92 1013 7 11 N/A
1:53 am 01:53 Cloudy with Light Rain 69 20.6 67 19.4 93 93 N N/A 29.90 1013 8 13 N/A
2:53 am 02:53 Cloudy 69 20.6 67 19.4 93 93 N N/A 29.91 1013 7 11 N/A
3:53 am 03:53 Mostly Cloudy 70 21.1 66 18.9 87 87 NNE 5 7 29.89 1012 8 13 N/A
4:53 am 04:53 Mostly Cloudy 69 20.6 65 18.3 87 87 NNE 5 7 29.88 1012 9 14 N/A
5:53 am 05:53 Mostly Cloudy 68 20 63 17.2 84 84 N N/A 29.88 1012 9 14 N/A
6:53 am 06:53 Partly Cloudy 67 19.4 62 16.7 84 84 N N/A 29.88 1012 9 14 N/A
7:53 am 07:53 Mostly Cloudy 68 20 64 17.8 87 87 N N/A 29.89 1012 8 13 N/A
8:53 am 08:53 Cloudy 70 21.1 65 18.3 84 84 N N/A 29.89 1012 7 11 N/A
9:53 am 09:53 Mostly Cloudy 71 21.7 66 18.9 84 84 ENE 3 6 29.91 1013 7 11 N/A
10:31 am 10:31 Mostly Cloudy with Haze 72 22.2 67 19.4 84 84 NNE 5 7 29.91 1013 6 10 N/A
10:53 am 10:53 Cloudy with Mist and Fog 71 21.7 67 19.4 87 87 ENE 3 6 29.91 1013 6 10 N/A
11:26 am 11:26 Mostly Cloudy with Mist and Fog 72 22.2 68 20 87 87 E 5 7 29.91 1013 6 10 N/A
11:53 am 11:53 Mostly Cloudy with Haze 74 23.3 68 20 82 82 VRB 3 6 29.91 1013 5 8 N/A
12:31 pm 12:31 Mostly Cloudy with Haze 75 23.9 69 20.6 82 82 E 5 7 29.91 1013 5 8 N/A
12:53 pm 12:53 Hazy 75 23.9 68 20 79 79 E 7 11 29.89 1012 6 10 N/A
1:53 pm 13:53 Mostly Cloudy with Haze 75 23.9 68 20 79 79 VRB 3 6 29.89 1012 5 8 N/A
2:53 pm 14:53 Hazy 79 26.1 68 20 69 69 E 8 13 29.88 1012 6 10 N/A
3:53 pm 15:53 Mostly Cloudy 78 25.6 67 19.4 69 69 E 10 17 29.87 1012 7 11 N/A
4:53 pm 16:53 Mostly Cloudy 78 25.6 67 19.4 69 69 E 9 15 29.87 1011 7 11 N/A
5:53 pm 17:53 Partly Cloudy 79 26.1 66 18.9 65 65 ENE 8 13 29.86 1011 7 11 N/A
6:53 pm 18:53 Cloudy with Light Rain 76 24.4 67 19.4 74 74 ENE 10 17 29.87 1012 7 11 N/A
7:53 pm 19:53 Mostly Cloudy with Haze 75 23.9 66 18.9 74 74 E 8 13 29.88 1012 6 10 N/A
8:22 pm 20:22 Cloudy with Haze 74 23.3 66 18.9 76 76 E 8 13 29.88 1012 6 10 N/A
8:53 pm 20:53 Cloudy with Haze 74 23.3 66 18.9 76 76 E 5 7 29.88 1012 6 10 N/A
9:53 pm 21:53 Cloudy 73 22.8 65 18.3 76 76 ENE 8 13 29.89 1012 10 16 N/A
10:53 pm 22:53 Cloudy 72 22.2 65 18.3 79 79 ENE 9 15 29.91 1013 10 16 N/A
11:53 pm 23:53 Cloudy 71 21.7 64 17.8 79 79 E 8 13 29.91 1013 10 16 N/A

Powered by AerisWeather